"startDT [UTC]","vpos","CH4 [ppm]","stdev(CH4) [ppm]","CO2 [ppm]","stdev(CO2) [ppm]","H2O_reported [%]","stdev(H2O_reported)","CavityPressure [torr]","CavityTemp [C]","OutletValve","CH4_dry [ppm]","CO2_dry [ppm]","DasTemp [C]","EtalonTemp [C]","WarmBoxTemp [C]","MPVPosition","T_ECpre [C]","T_EC1 [C]","T_EC2 [C]","p_inlet [hPa]","p_in [hPa]","p_out [hPa]","T_inlet [C]","RH_inlet [%]","dwpt_inlet [C]","T_vent [C]","RH_vent [%]","dwpt_vent [C]","flow_vent [l min-1]","flow_inlet [l min-1]","dwpt_sample [C]","T_room [C]"
2015-05-02 00:00:00,0.0,1.91402,0.00034,404.424,0.034,0.1989,0.0012,140.000,45.000,34174.37137,1.91780,405.395,32.563,45.068,45.000,0.00,0.09,-272.72,-272.77,-0,963,-1,20.8,6.1,-18.0,20.5,6.3,-17.8,5.73,2.00,-13.9,25.3
2015-05-02 00:01:00,0.0,1.91391,0.00026,404.425,0.030,0.1984,0.0014,139.999,45.000,34175.19537,1.91765,405.394,32.588,45.068,45.000,0.00,0.09,-272.72,-272.77,-0,963,-1,20.8,6.1,-18.0,20.5,6.3,-17.8,5.73,1.96,-13.8,25.3
2015-05-02 00:02:00,0.0,1.91382,0.00041,404.392,0.028,0.1981,0.0020,140.001,45.000,34179.31236,1.91757,405.360,32.601,45.068,45.000,0.00,0.09,-272.72,-272.78,-1,963,-1,20.8,6.1,-18.0,20.5,6.3,-17.8,5.73,1.97,-13.8,25.3
2015-05-02 00:03:00,0.0,1.91392,0.00031,404.423,0.029,0.1995,0.0017,140.000,45.000,34177.24525,1.91770,405.397,32.587,45.068,45.000,0.00,0.09,-272.72,-272.77,-1,964,-1,20.8,6.1,-18.0,20.5,6.3,-17.8,5.73,2.02,-13.8,25.3
2015-05-02 00:04:00,0.0,1.91398,0.00040,404.453,0.039,0.1985,0.0017,139.998,45.000,34177.86416,1.91773,405.423,32.592,45.068,45.000,0.00,0.09,-272.72,-272.77,-1,965,-1,20.8,6.1,-18.0,20.5,6.3,-17.8,5.73,2.05,-13.8,25.3
2015-05-02 00:05:00,0.0,1.91390,0.00039,404.422,0.025,0.1991,0.0015,140.001,45.000,34180.48817,1.91765,405.394,32.577,45.068,45.000,0.00,0.09,-272.72,-272.78,-1,965,-1,20.8,6.1,-18.0,20.5,6.3,-17.8,5.73,2.04,-13.8,25.3
2015-05-02 00:06:00,0.0,1.91377,0.00032,404.415,0.022,0.1979,0.0022,140.001,45.000,34180.88098,1.91752,405.383,32.565,45.068,45.000,0.00,0.09,-272.72,-272.77,-0,965,-1,20.8,6.1,-18.0,20.5,6.3,-17.8,5.73,2.01,-13.8,25.3
2015-05-02 00:07:00,0.0,1.91362,0.00024,404.435,0.025,0.1976,0.0016,140.001,45.000,34181.99931,1.91735,405.401,32.570,45.068,45.000,0.00,0.09,-272.72,-272.78,-0,964,-1,20.8,6.0,-18.0,20.5,6.3,-17.8,5.73,1.98,-13.8,25.3
2015-05-02 00:08:00,0.0,1.91359,0.00046,404.404,0.034,0.1993,0.0012,140.000,45.000,34182.42303,1.91739,405.378,32.579,45.068,45.000,0.00,0.09,-272.72,-272.78,-1,964,-1,20.8,6.1,-18.0,20.5,6.3,-17.8,5.73,1.97,-13.8,25.3
2015-05-02 00:09:00,0.0,1.91348,0.00036,404.402,0.031,0.2007,0.0016,139.999,45.000,34183.03873,1.91728,405.383,32.579,45.068,45.000,0.00,0.09,-272.73,-272.77,-1,966,-1,20.8,6.1,-17.9,20.5,6.3,-17.7,5.73,1.97,-13.8,25.3
2015-05-02 00:10:00,0.0,1.91331,0.00032,404.384,0.034,0.2004,0.0020,139.997,45.000,34183.39160,1.91709,405.361,32.571,45.068,45.000,0.00,0.09,-272.72,-272.77,-1,966,-1,20.8,6.1,-17.8,20.5,6.3,-17.7,5.73,1.99,-13.8,25.3
2015-05-02 00:11:00,0.0,1.91361,0.00034,404.416,0.029,0.1986,0.0016,139.998,45.000,34182.83370,1.91736,405.389,32.570,45.068,45.000,0.00,0.09,-272.72,-272.76,-0,966,-1,20.8,6.1,-18.0,20.5,6.3,-17.8,5.73,2.03,-13.8,25.3
2015-05-02 00:12:00,0.0,1.91346,0.00035,404.416,0.039,0.1979,0.0018,140.000,45.000,34182.61585,1.91719,405.381,32.596,45.068,45.000,0.00,0.09,-272.73,-272.78,-0,965,-1,20.8,6.0,-18.0,20.5,6.2,-17.9,5.73,2.05,-13.8,25.3
2015-05-02 00:13:00,0.0,1.91336,0.00041,404.399,0.039,0.1989,0.0023,139.998,45.000,34181.85063,1.91711,405.370,32.604,45.068,45.000,0.00,0.09,-272.73,-272.79,0,965,-1,20.8,6.1,-18.0,20.5,6.3,-17.9,5.73,2.01,-13.8,25.3
2015-05-02 00:14:00,0.0,1.91354,0.00033,404.444,0.030,0.1999,0.0013,140.000,45.000,34178.42202,1.91736,405.421,32.601,45.068,45.000,0.00,0.09,-272.71,-272.78,0,964,-1,20.8,6.1,-17.9,20.5,6.3,-17.8,5.73,1.94,-13.8,25.4
2015-05-02 00:15:00,0.0,1.91320,0.00054,404.397,0.035,0.2002,0.0019,140.005,45.000,34183.11054,1.91701,405.378,32.615,45.068,45.000,0.00,0.09,-272.72,-272.78,-0,965,-1,20.8,6.1,-17.9,20.5,6.3,-17.7,5.73,1.94,-13.8,25.4
2015-05-02 00:16:00,0.0,1.91312,0.00023,404.375,0.040,0.2007,0.0025,140.002,45.000,34182.57899,1.91690,405.354,32.621,45.068,45.000,0.00,0.09,-272.72,-272.78,-0,964,-1,20.7,6.1,-17.9,20.5,6.3,-17.7,5.73,2.01,-13.8,25.4
2015-05-02 00:17:00,0.0,1.91354,0.00029,404.416,0.029,0.1967,0.0020,140.000,45.000,34179.78360,1.91725,405.377,32.616,45.068,45.000,0.00,0.09,-272.72,-272.77,-0,964,-1,20.8,6.0,-18.1,20.5,6.3,-17.9,5.73,2.05,-13.8,25.4
2015-05-02 00:18:00,0.0,1.91375,0.00037,404.449,0.032,0.1976,0.0021,140.000,45.000,34179.19261,1.91751,405.414,32.606,45.068,45.000,0.00,0.09,-272.72,-272.78,-0,964,-1,20.8,6.1,-18.0,20.5,6.2,-17.9,5.73,2.03,-13.8,25.3
2015-05-02 00:19:00,0.0,1.91362,0.00037,404.459,0.047,0.1972,0.0019,140.000,45.000,34180.35007,1.91733,405.421,32.574,45.068,45.000,0.00,0.09,-272.72,-272.78,-0,964,-1,20.8,6.0,-18.0,20.5,6.2,-17.9,5.73,1.98,-13.8,25.3
2015-05-02 00:20:00,0.0,1.91359,0.00040,404.488,0.023,0.1971,0.0017,139.995,45.000,34181.46669,1.91731,405.453,32.565,45.069,45.000,0.00,0.09,-272.72,-272.77,0,964,-1,20.8,6.0,-18.1,20.5,6.2,-17.9,5.73,1.95,-13.7,25.3
2015-05-02 00:21:00,0.0,1.91358,0.00030,404.457,0.027,0.1975,0.0013,139.998,45.000,34181.85397,1.91733,405.423,32.563,45.069,45.000,0.00,0.09,-272.72,-272.78,-0,964,-1,20.8,6.0,-18.1,20.5,6.2,-17.9,5.73,1.96,-13.8,25.3
2015-05-02 00:22:00,0.0,1.91336,0.00047,404.448,0.027,0.1966,0.0015,140.000,45.000,34182.86098,1.91707,405.408,32.563,45.069,45.000,0.00,0.09,-272.73,-272.78,-0,963,-1,20.8,6.0,-18.1,20.5,6.2,-17.9,5.73,2.00,-13.8,25.3
2015-05-02 00:23:00,0.0,1.91332,0.00027,404.450,0.021,0.1973,0.0018,140.002,45.000,34185.49743,1.91705,405.414,32.563,45.068,45.000,0.00,0.09,-272.73,-272.78,-1,965,-1,20.9,6.0,-18.0,20.5,6.2,-17.9,5.73,2.03,-13.6,25.3
2015-05-02 00:24:00,0.0,1.91345,0.00043,404.415,0.022,0.1977,0.0018,139.997,45.000,34184.32738,1.91723,405.381,32.564,45.068,45.000,0.00,0.09,-272.72,-272.77,-1,966,-1,20.9,6.0,-18.0,20.5,6.2,-17.8,5.73,2.04,-13.8,25.3
2015-05-02 00:25:00,0.0,1.91338,0.00031,404.434,0.031,0.1973,0.0011,140.000,45.000,34185.11474,1.91707,405.399,32.563,45.068,45.000,0.00,0.09,-272.71,-272.78,-0,965,-1,20.9,6.0,-18.0,20.5,6.2,-17.9,5.73,2.03,-13.8,25.3
2015-05-02 00:26:00,0.0,1.91336,0.00041,404.415,0.029,0.1962,0.0015,139.999,45.000,34184.67900,1.91707,405.373,32.563,45.068,45.000,0.00,0.09,-272.72,-272.78,-0,964,-1,20.9,6.0,-18.1,20.5,6.2,-17.9,5.73,2.00,-13.9,25.3
2015-05-02 00:27:00,0.0,1.91360,0.00033,404.439,0.016,0.1955,0.0018,140.000,45.000,34184.09568,1.91727,405.394,32.563,45.068,45.000,0.00,0.09,-272.72,-272.77,-1,964,-1,20.9,6.0,-18.1,20.5,6.2,-17.9,5.73,1.98,-13.6,25.3
2015-05-02 00:28:00,0.0,1.91340,0.00033,404.423,0.033,0.1974,0.0022,139.998,45.000,34183.94684,1.91715,405.385,32.558,45.068,45.000,0.00,0.09,-272.72,-272.78,-1,965,-1,20.9,6.0,-18.1,20.5,6.2,-17.9,5.73,1.96,-13.6,25.3
2015-05-02 00:29:00,0.0,1.91357,0.00032,404.431,0.024,0.1962,0.0018,139.996,45.000,34182.79133,1.91730,405.391,32.562,45.068,45.000,0.00,0.09,-272.72,-272.79,-1,965,-1,20.8,6.0,-18.1,20.5,6.2,-17.9,5.73,1.98,-13.8,25.3
2015-05-02 00:30:00,0.0,1.91327,0.00032,404.409,0.033,0.1949,0.0019,140.001,45.000,34185.34623,1.91696,405.362,32.559,45.068,45.000,0.00,0.09,-272.72,-272.78,-1,966,-1,20.8,5.9,-18.2,20.5,6.2,-18.0,5.73,2.03,-13.7,25.3
2015-05-02 00:31:00,0.0,1.91343,0.00041,404.440,0.021,0.1951,0.0018,140.001,45.000,34182.48395,1.91712,405.393,32.562,45.068,45.000,0.00,0.09,-272.71,-272.78,-1,966,-1,20.8,6.0,-18.2,20.5,6.2,-18.0,5.73,2.05,-13.8,25.4
2015-05-02 00:32:00,0.0,1.91368,0.00029,404.405,0.028,0.1958,0.0017,139.997,45.000,34181.11223,1.91737,405.361,32.580,45.068,45.000,0.00,0.09,-272.72,-272.77,-1,966,-1,20.8,6.0,-18.2,20.5,6.2,-18.0,5.73,2.03,-13.8,25.4
2015-05-02 00:33:00,0.0,1.91329,0.00026,404.413,0.033,0.1963,0.0018,139.997,45.000,34181.86255,1.91703,405.372,32.604,45.068,45.000,0.00,0.09,-272.71,-272.78,-1,965,-1,20.8,6.0,-18.2,20.5,6.2,-18.0,5.73,1.95,-13.8,25.4
2015-05-02 00:34:00,0.0,1.91328,0.00037,404.409,0.029,0.1964,0.0020,140.000,45.000,34183.82309,1.91700,405.370,32.625,45.068,45.000,0.00,0.09,-272.71,-272.78,-1,964,-1,20.8,6.0,-18.1,20.5,6.2,-17.9,5.73,1.96,-13.8,25.4
2015-05-02 00:35:00,0.0,1.91312,0.00033,404.430,0.028,0.1967,0.0016,139.999,45.000,34183.70841,1.91683,405.390,32.626,45.068,45.000,0.00,0.09,-272.71,-272.77,-1,964,-1,20.8,6.0,-18.1,20.5,6.2,-17.9,5.73,2.02,-13.8,25.4
2015-05-02 00:36:00,0.0,1.91320,0.00039,404.422,0.053,0.1986,0.0020,139.995,45.000,34180.63883,1.91696,405.391,32.665,45.068,45.000,0.00,0.09,-272.73,-272.78,-1,963,-1,20.8,6.0,-18.1,20.5,6.2,-17.9,5.73,2.06,-13.8,25.4
2015-05-02 00:37:00,0.0,1.91338,0.00022,404.428,0.053,0.1984,0.0015,139.994,45.000,34179.95798,1.91713,405.400,32.639,45.068,45.000,0.00,0.09,-272.71,-272.77,-1,964,-1,20.8,6.1,-18.0,20.5,6.2,-17.8,5.73,2.05,-13.8,25.4
2015-05-02 00:38:00,0.0,1.91327,0.00053,404.394,0.027,0.1982,0.0014,140.000,45.000,34181.38128,1.91699,405.362,32.626,45.068,45.000,0.00,0.09,-272.72,-272.78,-1,964,-1,20.9,6.0,-18.0,20.5,6.2,-17.8,5.73,1.99,-13.8,25.3
2015-05-02 00:39:00,0.0,1.91331,0.00041,404.399,0.029,0.1983,0.0017,140.002,45.000,34182.15812,1.91712,405.368,32.625,45.068,45.000,0.00,0.09,-272.72,-272.78,-1,965,-1,20.9,6.0,-18.0,20.5,6.2,-17.8,5.73,1.96,-13.8,25.3
2015-05-02 00:40:00,0.0,1.91314,0.00043,404.389,0.033,0.1990,0.0021,139.996,45.000,34182.27131,1.91689,405.361,32.618,45.068,45.000,0.00,0.09,-272.72,-272.78,-1,966,-1,20.9,6.1,-17.9,20.5,6.3,-17.8,5.73,1.96,-13.8,25.3
2015-05-02 00:41:00,0.0,1.91329,0.00042,404.360,0.028,0.2007,0.0018,139.999,45.000,34182.82079,1.91710,405.342,32.579,45.068,45.000,0.00,0.09,-272.71,-272.78,-1,965,-1,20.9,6.1,-17.9,20.5,6.3,-17.7,5.73,2.00,-13.8,25.3
2015-05-02 00:42:00,0.0,1.91311,0.00027,404.375,0.021,0.2008,0.0018,139.999,45.000,34184.63644,1.91691,405.356,32.577,45.068,45.000,0.00,0.09,-272.72,-272.78,-0,965,-1,20.9,6.1,-17.8,20.5,6.3,-17.7,5.73,2.04,-13.8,25.3
2015-05-02 00:43:00,0.0,1.91317,0.00035,404.401,0.051,0.2013,0.0014,140.001,45.000,34185.43152,1.91697,405.382,32.567,45.069,45.000,0.00,0.09,-272.72,-272.78,-0,965,-1,20.9,6.1,-17.9,20.6,6.3,-17.7,5.73,2.03,-13.7,25.4
2015-05-02 00:44:00,0.0,1.91314,0.00038,404.428,0.033,0.1998,0.0018,140.002,45.000,34185.63350,1.91693,405.406,32.572,45.069,45.000,0.00,0.09,-272.71,-272.77,-0,964,-1,20.9,6.1,-17.8,20.6,6.3,-17.7,5.73,1.99,-13.8,25.4
2015-05-02 00:45:00,0.0,1.91295,0.00038,404.415,0.027,0.2019,0.0020,139.997,45.000,34185.48060,1.91675,405.400,32.584,45.069,45.001,0.00,0.09,-272.72,-272.77,-0,964,-1,20.9,6.1,-17.8,20.6,6.3,-17.6,5.73,1.96,-13.7,25.4
2015-05-02 00:46:00,0.0,1.91309,0.00037,404.418,0.028,0.2001,0.0016,139.997,45.000,34185.19052,1.91689,405.397,32.578,45.068,45.000,0.00,0.09,-272.72,-272.78,-0,964,-1,20.9,6.1,-17.8,20.6,6.3,-17.6,5.73,1.95,-13.7,25.4
2015-05-02 00:47:00,0.0,1.91316,0.00031,404.431,0.050,0.1991,0.0011,139.997,45.000,34184.63031,1.91695,405.402,32.578,45.068,45.000,0.00,0.09,-272.72,-272.77,-1,964,-1,20.9,6.1,-17.9,20.6,6.3,-17.7,5.73,2.00,-13.8,25.4
2015-05-02 00:48:00,0.0,1.91346,0.00031,404.450,0.031,0.2018,0.0020,139.997,45.000,34185.22816,1.91722,405.438,32.572,45.068,45.000,0.00,0.09,-272.72,-272.76,-1,964,-1,20.9,6.1,-17.8,20.6,6.3,-17.6,5.73,2.03,-13.7,25.4
2015-05-02 00:49:00,0.0,1.91343,0.00038,404.457,0.055,0.2014,0.0017,139.997,45.000,34186.19239,1.91729,405.440,32.572,45.068,45.000,0.00,0.09,-272.73,-272.78,-1,966,-1,21.0,6.1,-17.8,20.6,6.3,-17.6,5.73,2.04,-13.7,25.4
2015-05-02 00:50:00,0.0,1.91326,0.00040,404.385,0.035,0.1995,0.0016,140.002,45.000,34190.01184,1.91703,405.360,32.564,45.068,45.000,0.00,0.09,-272.73,-272.79,-1,966,-1,20.9,6.0,-17.9,20.6,6.3,-17.7,5.73,2.03,-13.8,25.4
2015-05-02 00:51:00,0.0,1.91326,0.00028,404.398,0.029,0.1986,0.0015,139.999,45.000,34188.93688,1.91703,405.369,32.566,45.068,45.000,0.00,0.09,-272.72,-272.77,-0,965,-1,21.0,6.0,-18.0,20.6,6.2,-17.8,5.73,2.00,-13.7,25.4
2015-05-02 00:52:00,0.0,1.91322,0.00043,404.402,0.029,0.1998,0.0022,139.997,45.000,34191.26817,1.91699,405.378,32.579,45.068,45.000,0.00,0.09,-272.72,-272.77,-1,966,-1,21.0,6.0,-17.9,20.6,6.3,-17.8,5.73,1.98,-13.7,25.4
2015-05-02 00:53:00,0.0,1.91306,0.00031,404.414,0.032,0.2016,0.0020,139.998,45.000,34189.95601,1.91688,405.397,32.597,45.068,45.000,0.00,0.09,-272.73,-272.77,-1,966,-1,21.0,6.1,-17.8,20.6,6.3,-17.7,5.73,1.96,-13.7,25.4
2015-05-02 00:54:00,0.0,1.91309,0.00049,404.474,0.043,0.1968,0.0016,140.000,45.000,34189.57554,1.91680,405.435,32.621,45.068,45.000,0.00,0.09,-272.71,-272.78,-1,967,-1,21.0,6.0,-18.0,20.6,6.2,-17.8,5.73,1.96,-13.7,25.4
2015-05-02 00:55:00,0.0,1.91326,0.00038,404.489,0.023,0.1965,0.0017,140.000,45.000,34190.86341,1.91696,405.449,32.618,45.068,44.999,0.00,0.09,-272.71,-272.78,-0,966,-1,21.0,5.9,-18.1,20.6,6.2,-17.9,5.73,1.99,-13.7,25.4
2015-05-02 00:56:00,0.0,1.91358,0.00048,404.475,0.028,0.1977,0.0018,140.000,45.000,34187.56876,1.91732,405.442,32.625,45.068,45.000,0.00,0.09,-272.73,-272.78,-1,965,-1,21.0,6.0,-18.1,20.6,6.2,-17.9,5.73,2.03,-13.7,25.4
2015-05-02 00:57:00,0.0,1.91363,0.00026,404.473,0.036,0.1995,0.0015,140.002,45.000,34186.81265,1.91742,405.448,32.625,45.068,45.000,0.00,0.09,-272.72,-272.78,-1,965,-1,21.0,6.0,-18.0,20.6,6.2,-17.8,5.73,2.05,-13.7,25.4
2015-05-02 00:58:00,0.0,1.91369,0.00035,404.479,0.027,0.1993,0.0017,139.998,45.000,34185.00541,1.91743,405.454,32.627,45.068,45.000,0.00,0.09,-272.72,-272.78,-1,965,-1,21.0,6.0,-17.9,20.6,6.2,-17.8,5.73,2.03,-13.7,25.4
2015-05-02 00:59:00,0.0,1.91356,0.00042,404.471,0.020,0.2021,0.0018,139.998,45.000,34183.78843,1.91740,405.457,32.665,45.068,45.000,0.00,0.09,-272.71,-272.78,-1,965,-1,21.0,6.1,-17.8,20.6,6.3,-17.7,5.73,1.97,-13.7,25.4
2015-05-02 01:00:00,0.0,1.91349,0.00042,404.489,0.034,0.2023,0.0019,140.000,45.000,34186.08609,1.91734,405.479,32.688,45.068,45.000,0.00,0.09,-272.72,-272.78,-1,964,-1,21.0,6.1,-17.7,20.6,6.3,-17.6,5.73,1.95,-13.7,25.4
2015-05-02 01:01:00,0.0,1.91323,0.00045,404.497,0.036,0.2008,0.0015,139.998,45.000,34187.43164,1.91704,405.479,32.697,45.068,45.000,0.00,0.09,-272.72,-272.78,-1,965,-1,21.0,6.1,-17.8,20.6,6.3,-17.6,5.73,1.99,-13.7,25.4
2015-05-02 01:02:00,0.0,1.91338,0.00048,404.488,0.034,0.2005,0.0022,140.000,45.000,34188.97934,1.91714,405.466,32.719,45.068,45.000,0.00,0.09,-272.72,-272.77,-1,966,-1,21.0,6.1,-17.8,20.6,6.3,-17.7,5.73,2.04,-13.7,25.4
2015-05-02 01:03:00,0.0,1.91311,0.00029,404.504,0.039,0.2059,0.0025,140.000,45.000,34189.36848,1.91702,405.512,32.715,45.068,45.000,0.00,0.09,-272.72,-272.78,-1,966,-1,21.0,6.2,-17.6,20.6,6.4,-17.5,5.73,2.05,-13.7,25.4
2015-05-02 01:04:00,0.0,1.91338,0.00036,404.463,0.027,0.2038,0.0014,140.003,45.000,34191.25558,1.91726,405.458,32.707,45.068,45.000,0.00,0.09,-272.72,-272.77,-1,966,-1,21.0,6.2,-17.6,20.6,6.4,-17.4,5.73,2.02,-13.7,25.4
2015-05-02 01:05:00,0.0,1.91309,0.00040,404.537,0.032,0.2041,0.0020,140.003,45.000,34192.30156,1.91695,405.535,32.690,45.068,45.000,0.00,0.09,-272.72,-272.77,-0,966,-1,21.0,6.2,-17.6,20.7,6.4,-17.5,5.73,1.98,-13.7,25.4
2015-05-02 01:06:00,0.0,1.91307,0.00036,404.526,0.029,0.2008,0.0021,139.997,45.000,34193.26313,1.91684,405.507,32.680,45.068,45.000,0.00,0.09,-272.72,-272.78,-1,965,-1,21.0,6.1,-17.9,20.7,6.3,-17.6,5.73,1.97,-13.7,25.4
2015-05-02 01:07:00,0.0,1.91311,0.00036,404.524,0.027,0.1980,0.0017,139.998,45.000,34193.03626,1.91687,405.494,32.679,45.068,45.000,0.00,0.09,-272.72,-272.78,-1,965,-1,21.0,6.0,-18.0,20.7,6.2,-17.8,5.73,1.97,-13.7,25.4
2015-05-02 01:08:00,0.0,1.91313,0.00035,404.510,0.030,0.1954,0.0026,140.001,45.000,34195.45163,1.91682,405.465,32.638,45.068,45.000,0.00,0.09,-272.71,-272.77,-1,967,-1,21.1,5.9,-18.1,20.7,6.2,-17.8,5.73,1.98,-13.7,25.4
2015-05-02 01:09:00,0.0,1.91330,0.00030,404.513,0.018,0.1947,0.0026,139.996,45.000,34192.87535,1.91697,405.465,32.630,45.069,45.000,0.00,0.09,-272.72,-272.78,-1,966,-1,21.1,5.9,-18.2,20.7,6.1,-18.0,5.73,2.00,-13.6,25.5
2015-05-02 01:10:00,0.0,1.91334,0.00045,404.496,0.037,0.1960,0.0018,140.000,45.000,34193.02457,1.91705,405.454,32.626,45.069,45.001,0.00,0.09,-272.72,-272.79,-1,965,-1,21.1,5.9,-18.2,20.7,6.1,-18.0,5.73,2.04,-13.6,25.4
2015-05-02 01:11:00,0.0,1.91302,0.00035,404.484,0.031,0.1948,0.0021,139.998,45.000,34196.01172,1.91674,405.437,32.627,45.069,45.000,0.00,0.09,-272.71,-272.78,-1,966,-1,21.1,5.9,-18.2,20.7,6.1,-18.0,5.73,2.04,-13.6,25.4
2015-05-02 01:12:00,0.0,1.91281,0.00033,404.448,0.036,0.1972,0.0021,139.999,45.000,34197.68319,1.91650,405.412,32.626,45.069,45.001,0.00,0.09,-272.71,-272.78,-2,967,-1,21.1,5.9,-18.1,20.7,6.1,-17.9,5.73,2.03,-13.6,25.4
2015-05-02 01:13:00,0.0,1.91324,0.00032,404.418,0.031,0.1957,0.0017,139.997,45.000,34192.52055,1.91695,405.375,32.632,45.068,45.000,0.00,0.09,-272.73,-272.78,-1,967,-1,21.1,5.9,-18.2,20.7,6.1,-18.0,5.73,1.99,-13.6,25.4
2015-05-02 01:14:00,0.0,1.91339,0.00021,404.430,0.030,0.1957,0.0013,140.001,45.000,34196.09020,1.91709,405.386,32.675,45.068,45.000,0.00,0.09,-272.73,-272.78,-1,967,-1,21.1,5.9,-18.2,20.7,6.1,-18.0,5.73,1.95,-13.6,25.4
2015-05-02 01:15:00,0.0,1.91336,0.00030,404.410,0.041,0.1946,0.0013,139.997,45.000,34194.87439,1.91704,405.360,32.674,45.068,45.000,0.00,0.09,-272.71,-272.77,-0,965,-1,21.1,5.8,-18.3,20.7,6.1,-18.1,5.73,1.96,-13.6,25.4
2015-05-02 01:16:00,0.0,1.91344,0.00022,404.417,0.026,0.1930,0.0021,140.002,45.000,34194.43618,1.91708,405.361,32.686,45.068,45.000,0.00,0.09,-272.72,-272.77,-0,965,-1,21.1,5.8,-18.3,20.7,6.0,-18.1,5.73,1.99,-13.6,25.4
2015-05-02 01:17:00,0.0,1.91332,0.00042,404.402,0.029,0.1938,0.0023,140.003,45.000,34195.42093,1.91698,405.348,32.686,45.068,45.000,0.00,0.09,-272.72,-272.78,-1,965,-1,21.1,5.8,-18.3,20.7,6.0,-18.1,5.73,2.04,-13.6,25.4
2015-05-02 01:18:00,0.0,1.91307,0.00039,404.388,0.030,0.1974,0.0014,139.997,45.000,34195.03196,1.91685,405.352,32.687,45.068,45.000,0.00,0.09,-272.72,-272.76,-1,967,-1,21.1,5.9,-18.1,20.7,6.1,-17.9,5.73,2.04,-13.6,25.5
2015-05-02 01:19:00,0.0,1.91292,0.00037,404.383,0.037,0.2000,0.0018,140.001,45.000,34196.99952,1.91670,405.360,32.704,45.068,45.000,0.00,0.09,-272.72,-272.77,-1,967,-1,21.1,6.0,-17.9,20.7,6.2,-17.8,5.73,2.03,-13.6,25.5
2015-05-02 01:20:00,0.0,1.91330,0.00028,404.389,0.039,0.2001,0.0023,140.000,45.000,34196.43017,1.91708,405.367,32.723,45.068,45.000,0.00,0.09,-272.71,-272.77,-1,967,-1,21.1,6.0,-17.9,20.7,6.2,-17.7,5.73,1.99,-13.6,25.5
2015-05-02 01:21:00,0.0,1.91308,0.00034,404.388,0.035,0.1982,0.0016,140.001,45.000,34198.61487,1.91682,405.357,32.750,45.068,45.000,0.00,0.09,-272.70,-272.81,-1,966,-1,21.1,5.9,-18.0,20.7,6.2,-17.8,5.73,1.96,-13.6,25.4
2015-05-02 01:22:00,0.0,1.91314,0.00042,404.385,0.028,0.1991,0.0023,139.998,45.000,34195.90864,1.91688,405.358,32.750,45.068,45.000,0.00,0.09,-272.72,-272.79,-1,965,-1,21.1,6.0,-17.9,20.7,6.2,-17.8,5.73,1.96,-13.6,25.5
2015-05-02 01:23:00,0.0,1.91345,0.00053,404.404,0.030,0.1988,0.0025,139.996,45.000,34196.15998,1.91723,405.375,32.750,45.068,45.000,0.00,0.09,-272.75,-272.82,-2,967,-1,21.1,6.0,-18.0,20.7,6.2,-17.8,5.73,1.97,-13.6,25.5
2015-05-02 01:24:00,0.0,1.91337,0.00037,404.406,0.018,0.2005,0.0018,139.998,45.000,34195.49872,1.91717,405.385,32.749,45.068,45.000,0.00,0.09,-272.72,-272.79,-1,968,-1,21.1,6.0,-17.9,20.8,6.2,-17.7,5.73,2.02,-13.6,25.5
2015-05-02 01:25:00,0.0,1.91350,0.00047,404.406,0.032,0.1995,0.0011,140.002,45.000,34197.69339,1.91730,405.382,32.732,45.068,45.000,0.00,0.09,-272.70,-272.78,-1,966,-1,21.1,6.0,-17.9,20.8,6.2,-17.7,5.73,2.03,-13.6,25.5
2015-05-02 01:26:00,0.0,1.91332,0.00034,404.391,0.027,0.2003,0.0019,140.001,45.000,34200.12118,1.91710,405.369,32.729,45.068,45.000,0.00,0.09,-272.71,-272.79,-1,966,-1,21.1,6.0,-17.9,20.8,6.2,-17.7,5.73,2.04,-13.6,25.5
2015-05-02 01:27:00,0.0,1.91309,0.00030,404.368,0.032,0.2024,0.0025,139.998,45.000,34200.29481,1.91693,405.359,32.725,45.068,45.000,0.00,0.09,-272.73,-272.79,-2,967,-1,21.2,6.0,-17.8,20.8,6.3,-17.6,5.73,2.03,-13.6,25.5
2015-05-02 01:28:00,0.0,1.91295,0.00036,404.361,0.035,0.2026,0.0020,140.001,45.000,34202.49093,1.91679,405.352,32.721,45.068,45.000,0.00,0.09,-272.71,-272.78,-1,967,-1,21.1,6.1,-17.7,20.8,6.3,-17.6,5.73,2.00,-13.6,25.5
2015-05-02 01:29:00,0.0,1.91308,0.00031,404.341,0.035,0.2009,0.0016,139.999,45.000,34203.95375,1.91686,405.321,32.743,45.068,45.000,0.00,0.09,-272.71,-272.77,-1,966,-1,21.2,6.0,-17.8,20.8,6.3,-17.6,5.73,1.97,-13.6,25.5
2015-05-02 01:30:00,0.0,1.91338,0.00032,404.363,0.034,0.1981,0.0022,140.002,45.000,34203.07458,1.91712,405.332,32.750,45.068,45.000,0.00,0.09,-272.73,-272.79,-1,967,-1,21.2,5.9,-18.1,20.8,6.2,-17.8,5.73,1.97,-13.5,25.5
2015-05-02 01:31:00,0.0,1.91337,0.00032,404.364,0.035,0.1975,0.0023,140.001,45.000,34202.41816,1.91712,405.332,32.751,45.068,45.000,0.00,0.09,-272.71,-272.78,-2,968,-1,21.2,5.9,-18.1,20.8,6.1,-17.9,5.73,1.96,-13.5,25.5
2015-05-02 01:32:00,0.0,1.91348,0.00038,404.314,0.042,0.1989,0.0021,140.000,45.000,34203.50683,1.91724,405.285,32.752,45.068,45.000,0.00,0.09,-272.72,-272.77,-1,968,-1,21.2,5.9,-18.0,20.8,6.2,-17.8,5.73,1.98,-13.5,25.5
2015-05-02 01:33:00,0.0,1.91330,0.00035,404.312,0.042,0.1989,0.0013,139.998,45.000,34203.09364,1.91705,405.282,32.764,45.068,45.000,0.00,0.09,-272.72,-272.77,-1,967,-1,21.2,5.9,-18.0,20.8,6.2,-17.8,5.73,2.02,-13.5,25.5
2015-05-02 01:34:00,0.0,1.91363,0.00027,404.347,0.050,0.1985,0.0021,139.999,45.000,34202.84198,1.91739,405.316,32.755,45.068,45.000,0.00,0.09,-272.72,-272.77,-1,966,-1,21.2,5.9,-18.0,20.8,6.2,-17.8,5.73,2.04,-13.5,25.5
2015-05-02 01:35:00,0.0,1.91366,0.00043,404.409,0.030,0.1971,0.0015,139.997,45.000,34200.73350,1.91738,405.373,32.755,45.068,45.000,0.00,0.09,-272.72,-272.77,-1,967,-1,21.2,5.8,-18.1,20.8,6.1,-17.9,5.73,2.04,-13.5,25.6
2015-05-02 01:36:00,0.0,1.91348,0.00027,404.495,0.053,0.1966,0.0018,140.002,45.000,34203.50706,1.91723,405.454,32.750,45.068,45.000,0.00,0.09,-272.71,-272.77,-1,968,-1,21.2,5.8,-18.2,20.8,6.1,-17.9,5.73,2.01,-13.5,25.6
2015-05-02 01:37:00,0.0,1.91378,0.00041,404.550,0.031,0.1945,0.0015,140.004,45.000,34203.55318,1.91743,405.499,32.769,45.068,45.000,0.00,0.09,-272.72,-272.78,-1,967,-1,21.2,5.7,-18.3,20.8,6.0,-18.0,5.73,1.97,-13.5,25.6
2015-05-02 01:38:00,0.0,1.91363,0.00035,404.604,0.038,0.1932,0.0018,140.001,45.000,34204.83753,1.91731,405.549,32.807,45.068,45.000,0.00,0.09,-272.71,-272.78,-1,966,-1,21.3,5.7,-18.3,20.8,6.0,-18.1,5.73,1.95,-13.4,25.6
2015-05-02 01:39:00,0.0,1.91367,0.00038,404.570,0.032,0.1938,0.0017,140.000,45.000,34204.82662,1.91732,405.517,32.808,45.068,45.000,0.00,0.09,-272.72,-272.77,-1,966,-1,21.3,5.7,-18.3,20.8,6.0,-18.1,5.73,1.97,-13.5,25.6
2015-05-02 01:40:00,0.0,1.91359,0.00044,404.548,0.030,0.1944,0.0017,139.995,45.000,34203.45510,1.91728,405.498,32.806,45.068,45.000,0.00,0.09,-272.73,-272.78,-2,967,-1,21.3,5.7,-18.3,20.9,6.0,-18.0,5.73,1.99,-13.5,25.6
2015-05-02 01:41:00,0.0,1.91355,0.00026,404.498,0.037,0.1959,0.0016,139.997,45.000,34205.69419,1.91726,405.458,32.792,45.068,45.000,0.00,0.09,-272.72,-272.77,-1,968,-1,21.3,5.8,-18.2,20.9,6.0,-18.0,5.73,2.01,-13.5,25.6
2015-05-02 01:42:00,0.0,1.91374,0.00029,404.504,0.026,0.1968,0.0018,140.001,45.000,34206.52676,1.91747,405.465,32.778,45.068,45.000,0.00,0.09,-272.72,-272.77,-1,967,-1,21.3,5.8,-18.2,20.9,6.1,-17.9,5.73,2.03,-13.5,25.6
2015-05-02 01:43:00,0.0,1.91369,0.00028,404.517,0.042,0.1991,0.0017,139.997,45.000,34206.24721,1.91747,405.489,32.759,45.068,45.000,0.00,0.09,-272.72,-272.78,-1,966,-1,21.3,5.8,-18.1,20.9,6.1,-17.9,5.73,2.04,-13.5,25.6
2015-05-02 01:44:00,0.0,1.91364,0.00037,404.534,0.043,0.1974,0.0017,139.999,45.000,34206.11018,1.91735,405.498,32.761,45.068,45.000,0.00,0.09,-272.72,-272.78,-2,968,-1,21.3,5.8,-18.1,20.9,6.1,-17.9,5.73,2.02,-13.5,25.6
2015-05-02 01:45:00,0.0,1.91352,0.00029,404.531,0.059,0.1984,0.0014,140.001,45.000,34207.61611,1.91728,405.498,32.755,45.069,45.000,0.00,0.09,-272.72,-272.77,-1,968,-1,21.3,5.8,-18.1,20.9,6.1,-17.9,5.73,1.98,-13.5,25.6
2015-05-02 01:46:00,0.0,1.91354,0.00039,404.586,0.081,0.1993,0.0020,140.003,45.000,34208.00547,1.91731,405.563,32.750,45.069,45.000,0.00,0.09,-272.72,-272.77,-1,967,-1,21.3,5.9,-18.0,20.9,6.1,-17.8,5.73,1.96,-13.5,25.6